Home > Weather > Prenzlau > Past weeks

Flag for Germany Past Weather in Prenzlau, Brandenburg, Germany — Yesterday and Last 2 Weeks

Now
72 °F

Passing clouds.


Feels Like: 72 °F
Forecast: 61 / 78 °F
Wind: 3 mph from East

Location: Szczecin Airport

Current Time: Jul 26, 2016 at 12:02:01 AM

Latest Report: Jul 25, 2016 at 11:30 PM


Visibility: N/A

Pressure: 30.04 "Hg

Humidity: 78%

Dew Point: 64 °F

Location of PrenzlauLocation

Past Weather in Prenzlau — Graph

°F

Prenzlau Temperature Yesterday

Maximum temperature yesterday: 84 °F (at 4:30 PM)
Minimum temperature yesterday: 59 °F (at 5:30 AM)
Average temperature yesterday: 73 °F

High & Low Weather Summary for the Past Weeks

 TemperatureHumidityPressure
High84 °F (Jul 25, 4:30 PM)100% (Jul 12, 3:30 AM)30.21 "Hg (Jul 12, 3:30 AM)
Low48 °F (Jul 20, 5:00 AM)37% (Jul 21, 5:00 PM)29.68 "Hg (Jul 11, 4:00 AM)
Average66 °F75%30.00 "Hg
* Reported Jul 10 11:00 PM — Jul 25 11:00 PM, Prenzlau, Weather by CustomWeather, © 2016

Note: Actual official high and low records may vary slightly from our data, if they occured in-between our weather recording intervals... More about our weather records

Advertising

Prenzlau Weather History for the Previous 24 Hours

Scroll right to see more
 ConditionsComfort  
Time TempWeatherWind HumidityBarometerVisibility
11:00 PM
Mon, Jul 25
73 °FClear.3 mph74%30.04 "Hg10 mi
10:30 PM73 °FClear.6 mph74%30.01 "Hg10 mi
10:00 PM75 °FSunny.7 mph69%30.01 "Hg10 mi
9:30 PM75 °FSunny.7 mph69%30.01 "Hg10 mi
9:00 PM77 °FSunny.6 mph65%30.01 "Hg10 mi
8:30 PM79 °FSunny.6 mph61%30.01 "Hg10 mi
8:00 PM81 °FSunny.6 mph58%30.01 "Hg10 mi
7:30 PM81 °FPassing clouds.6 mph54%30.01 "HgN/A
7:00 PM82 °FPassing clouds.7 mph51%29.98 "HgN/A
6:30 PM82 °FSunny.6 mph45%29.98 "Hg10 mi
6:00 PM84 °FSunny.5 mph45%29.98 "Hg10 mi
5:30 PM84 °FPassing clouds.5 mph45%30.01 "HgN/A
5:00 PM82 °FSunny.7 mph42%30.01 "Hg10 mi
4:30 PM84 °FPassing clouds.6 mph43%30.01 "HgN/A
4:00 PM82 °FPassing clouds.5 mph45%30.01 "HgN/A
3:30 PM81 °FPassing clouds.5 mph54%30.01 "HgN/A
3:00 PM82 °FSunny.2 mph51%30.04 "Hg10 mi
2:30 PM81 °FScattered clouds.3 mph51%30.04 "HgN/A
2:00 PM81 °FScattered clouds.5 mph51%30.04 "HgN/A
1:30 PM81 °FPassing clouds.2 mph51%30.04 "HgN/A
1:00 PM81 °FPassing clouds.3 mph54%30.04 "HgN/A
12:30 PM77 °FBroken clouds.2 mph61%30.04 "HgN/A
12:00 PM77 °FPartly sunny.2 mph57%30.04 "HgN/A
11:30 AM79 °FScattered clouds.3 mph54%30.04 "HgN/A
11:00 AM77 °FPassing clouds.5 mph69%30.04 "HgN/A
10:30 AM75 °FPassing clouds.5 mph65%30.04 "HgN/A
10:00 AM75 °FPassing clouds.5 mph65%30.07 "HgN/A
9:30 AM75 °FSunny.2 mph69%30.07 "Hg10 mi
9:00 AM73 °FSunny.2 mph78%30.07 "Hg10 mi
8:30 AM72 °FSunny.3 mph78%30.07 "Hg10 mi
8:00 AM68 °FPassing clouds.5 mph83%30.07 "HgN/A
7:30 AM66 °FSunny.3 mph88%30.07 "Hg10 mi
7:00 AM64 °FSunny.5 mph94%30.07 "Hg10 mi
6:30 AM61 °FSunny.5 mph100%30.07 "Hg10 mi
6:00 AM59 °FFog.3 mph100%30.07 "Hg5 mi
5:30 AM59 °FFog.3 mph100%30.07 "Hg5 mi
5:00 AM61 °FFog.2 mph94%30.07 "Hg5 mi
4:30 AM61 °FClear.3 mph94%30.07 "Hg10 mi
4:00 AM61 °FClear.3 mph94%30.07 "Hg10 mi
3:30 AM61 °FClear.5 mph100%30.07 "Hg10 mi
3:00 AM63 °FClear.6 mph94%30.07 "Hg10 mi
2:30 AM63 °FClear.6 mph94%30.07 "Hg10 mi
2:00 AM63 °FClear.6 mph94%30.07 "Hg10 mi
1:30 AM63 °FClear.5 mph100%30.07 "Hg10 mi
1:00 AM64 °FPassing clouds.3 mph94%30.07 "HgN/A
12:30 AM66 °FClear.2 mph88%30.09 "Hg10 mi
12:00 AM66 °FClear.6 mph88%30.09 "Hg10 mi
Weather by CustomWeather, © 2016

See weather overviewHow to use our weather pages